Location: Antioch
(38.0049°N, 121.8058°W)
Time: 06:14:00
(UTC+00:00)

Cosmos 1869 - Pass Details

Date: 11 February 2026
Orbit: 447 x 472 km, 82.5° (Epoch: 9 March)

Event Time Altitude Azimuth Distance (km) Brightness Sun altitude
Rises 14:04:43 0° 181° (S) 2,504 6.8 -11.8°
Reaches altitude 10° 14:06:48 10° 179° (S) 1,628 5.8 -11.3°
Maximum altitude 14:10:20 71° 96° (E) 500 3.3 -10.7°
Drops below altitude 10° 14:13:53 10° 12° (NNE) 1,626 5.8 -10.0°
Sets 14:15:58 0° 10° (N) 2,501 6.7 -9.6°
